Location: Napa Soda Springs
(38.3907°N, 122.2794°W)
Time: 20:54:49
(UTC+00:00)

Meteor 2-5 Rocket - Pass Details

Date: 29 October 2020
Orbit: 834 x 911 km, 81.2° (Epoch: 24 November)

Event Time Altitude Azimuth Distance (km) Brightness Sun altitude
Rises 12:43:52 0° 197° (SSW) 3,413 6.7 -21.9°
Reaches altitude 10° 12:46:17 10° 201° (SSW) 2,492 5.9 -21.4°
Maximum altitude 12:51:53 61° 281° (WNW) 992 3.7 -20.3°
Drops below altitude 10° 12:57:39 10° 2° (N) 2,561 6.2 -19.2°
Sets 13:00:10 0° 6° (N) 3,515 7.0 -18.7°
